User: anonymous   Login
Location: Leeds
(37.2390°N, 113.3580°W)
Time: 13:10:39
(UTC-07:00)
Language:

SL-08 RB Rocket - Orbit

View from above orbital plane
View from above orbital plane
View from above satellite
View from above satellite

Ground track
Ground track

The orbit data is extracted from the following two-line orbital elements,

1 26387U 00033D   17017.83193823  .00000063  00000-0  19232-4 0  9995
2 26387  97.9918  85.8169 0027874  94.9925  39.3323 14.68233526885817
Epoch (UTC): 17 January 2017 19:57:59
Eccentricity: 0.0027874
inclination: 97.9918°
perigee height: 647 km
apogee height: 686 km
right ascension of ascending node: 85.8169°
argument of perigee: 94.9925°
revolutions per day: 14.68233526
mean anomaly at epoch: 39.3323°
orbit number at epoch: 88581

The dashed part of the orbit path shows where the satellite is in the earth's shadow,  

DLR